AI7R Weather Reports


time (UTC)temp
C
wind
direction
speed
KPH
gust
KPH
rain 1hr
cm
rain 24hr
cm
rain mn
cm
humidity
%
barometer
mb
20260903083003 17 360 0.0 0.0 0.00 0.00 0.00 64 1014.6
20260903080005 17 153 0.0 0.0 0.00 0.00 0.00 63 1014.7
20260903074502 17 360 0.0 0.0 0.00 0.00 0.00 64 1014.9
20260903073004 17 360 0.0 0.0 0.00 0.00 0.00 65 1014.8
20260903071502 18 153 0.0 0.0 0.00 0.00 0.00 64 1014.9
20260903064502 18 360 0.0 0.0 0.00 0.00 0.00 62 1014.9
20260903063002 19 155 0.0 3.2 0.00 0.00 0.00 63 1014.9
20260903061502 19 148 0.0 0.0 0.00 0.00 0.00 61 1014.9
20260903060005 19 360 0.0 1.6 0.00 0.00 0.00 62 1014.9
20260903054502 19 142 0.0 0.0 0.00 0.00 0.00 63 1014.9
20260903053003 19 142 0.0 0.0 0.00 0.00 0.00 63 1015.0
20260903051502 19 142 0.0 0.0 0.00 0.00 0.00 62 1015.2
20260903050005 19 142 0.0 0.0 0.00 0.00 0.00 62 1015.2
20260903043002 19 143 0.0 0.0 0.00 0.00 0.00 61 1015.4
20260903041504 20 360 0.0 3.2 0.00 0.00 0.00 60 1015.3
20260903040008 19 136 0.0 0.0 0.00 0.00 0.00 61 1015.2
20260903034502 20 136 0.0 0.0 0.00 0.00 0.00 60 1015.3
20260903033002 20 360 0.0 1.6 0.00 0.00 0.00 59 1015.1
20260903031501 20 360 0.0 0.0 0.00 0.00 0.00 59 1014.8
20260903030006 20 360 0.0 4.8 0.00 0.00 0.00 57 1014.5
20260903024501 21 360 0.0 0.0 0.00 0.00 0.00 55 1014.3
20260903023003 21 360 0.0 3.2 0.00 0.00 0.00 54 1014.2
20260903021502 21 360 0.0 6.4 0.00 0.00 0.00 53 1014.0
20260903020005 22 360 0.0 1.6 0.00 0.00 0.00 51 1013.8
20260903014501 22 360 0.0 4.8 0.00 0.00 0.00 50 1013.9
20260903013002 23 360 1.6 6.4 0.00 0.00 0.00 49 1014.1
20260903011502 23 360 1.6 11.3 0.00 0.00 0.00 48 1014.1
20260903010005 23 360 3.2 14.5 0.00 0.00 0.00 47 1014.1
20260903004501 25 360 3.2 14.5 0.00 0.00 0.00 46 1014.1
20260903003001 25 360 4.8 16.1 0.00 0.00 0.00 45 1014.2
20260903000004 25 360 6.4 16.1 0.00 0.00 0.00 46 1014.4
20260902233001 25 250 4.8 19.3 0.00 0.00 0.00 48 1014.5
20260902231500 25 360 6.4 14.5 0.00 0.00 0.00 47 1014.5
20260902230004 25 281 4.8 17.7 0.00 0.00 0.00 46 1014.7
20260902224501 26 360 4.8 19.3 0.00 0.00 0.00 45 1014.7
20260902223001 27 360 3.2 17.7 0.00 0.00 0.00 44 1014.9
20260902221501 26 360 6.4 19.3 0.00 0.00 0.00 45 1015.1
20260902220004 26 360 6.4 27.4 0.00 0.00 0.00 44 1015.1
20260902214501 26 360 6.4 22.5 0.00 0.00 0.00 47 1015.3
20260902211501 26 360 4.8 20.9 0.00 0.00 0.00 42 1015.5
20260902210004 26 171 6.4 27.4 0.00 0.00 0.00 45 1015.6
20260902204500 26 360 6.4 22.5 0.00 0.00 0.00 46 1015.8
20260902203001 25 360 4.8 16.1 0.00 0.00 0.00 47 1015.9
20260902201502 25 360 6.4 22.5 0.00 0.00 0.00 47 1016.0
20260902200004 25 360 9.7 27.4 0.00 0.00 0.00 47 1016.2
20260902191500 25 360 8.0 20.9 0.00 0.00 0.00 50 1016.6
20260902190006 25 360 6.4 17.7 0.00 0.00 0.00 48 1016.6
20260902184500 25 360 6.4 24.1 0.00 0.00 0.00 50 1017.0
20260902183000 24 360 6.4 20.9 0.00 0.00 0.00 51 1017.0
20260902181500 25 360 4.8 19.3 0.00 0.00 0.00 52 1017.3
20260902180006 24 360 4.8 16.1 0.00 0.00 0.00 54 1017.4
20260902174500 23 360 3.2 16.1 0.00 0.00 0.00 56 1017.4
20260902173000 23 360 3.2 12.9 0.00 0.00 0.00 58 1017.5
20260902171500 22 360 4.8 9.7 0.00 0.00 0.00 61 1017.5
20260902170004 23 360 4.8 14.5 0.00 0.00 0.00 59 1017.5
20260902164500 23 360 3.2 14.5 0.00 0.00 0.00 61 1017.5
20260902163000 22 360 3.2 12.9 0.00 0.00 0.00 63 1017.3
20260902161500 21 221 1.6 9.7 0.00 0.00 0.00 66 1017.3
20260902160005 21 360 3.2 11.3 0.00 0.00 0.00 68 1017.2
20260902154500 20 360 1.6 6.4 0.00 0.00 0.00 71 1017.2
20260902151500 19 360 0.0 4.8 0.00 0.00 0.00 77 1017.1
20260902144500 18 133 0.0 6.4 0.00 0.00 0.00 78 1017.0
20260902143000 18 360 0.0 3.2 0.00 0.00 0.00 77 1016.9
20260902141500 18 84 0.0 3.2 0.00 0.00 0.00 79 1016.8
20260902140004 17 360 0.0 4.8 0.00 0.00 0.00 79 1016.7
20260902133000 17 77 0.0 3.2 0.00 0.00 0.00 80 1016.4
20260902130003 17 360 1.6 6.4 0.00 0.00 0.00 81 1016.2
20260902124500 17 360 1.6 4.8 0.00 0.00 0.00 80 1016.1
20260902123000 17 360 0.0 4.8 0.00 0.00 0.00 79 1016.0
20260902121500 17 360 0.0 1.6 0.00 0.00 0.00 78 1016.0
20260902120003 17 360 0.0 6.4 0.00 0.00 0.00 78 1015.8
20260902114500 16 360 0.0 3.2 0.00 0.00 0.00 79 1015.9
20260902111500 17 360 0.0 0.0 0.00 0.00 0.00 77 1015.8
20260902110006 17 360 0.0 0.0 0.00 0.00 0.00 76 1016.0
20260902104500 17 360 0.0 0.0 0.00 0.00 0.00 74 1016.1
20260902101500 18 360 0.0 3.2 0.00 0.00 0.00 72 1016.1
20260902100003 18 360 0.0 6.4 0.00 0.00 0.00 72 1016.0
20260902094459 18 360 0.0 4.8 0.00 0.00 0.00 73 1016.0
20260902091506 18 95 0.0 4.8 0.00 0.00 0.00 73 1016.0